FW6610 Weather Reports


time (UTC)temp
C
wind
direction
speed
KPH
gust
KPH
rain 1hr
cm
rain 24hr
cm
rain mn
cm
humidity
%
barometer
mb
20260831060107 16 0 0.0 0.0 0.00 0.00 0.00 94 1019.3
20260831055530 16 0 0.0 0.0 0.00 0.00 0.00 94 1019.3
20260831055033 16 211 0.0 0.0 0.00 0.00 0.00 94 1019.1
20260831054553 16 0 0.0 0.0 0.00 0.00 0.00 94 1019.1
20260831054032 16 0 0.0 0.0 0.00 0.00 0.00 94 1019.1
20260831053529 16 0 0.0 0.0 0.00 0.00 0.00 93 1019.1
20260831053059 16 0 0.0 0.0 0.00 0.00 0.00 93 1019.0
20260831052529 17 0 0.0 0.0 0.00 0.00 0.00 92 1018.9
20260831052030 17 0 0.0 0.0 0.00 0.00 0.00 92 1018.9
20260831051557 17 0 0.0 0.0 0.00 0.00 0.00 92 1018.9
20260831051029 17 0 0.0 0.0 0.00 0.00 0.00 91 1019.0
20260831050531 17 0 0.0 0.0 0.00 0.00 0.00 91 1018.9
20260831050112 17 0 0.0 0.0 0.00 0.00 0.00 91 1018.8
20260831045532 17 0 0.0 0.0 0.00 0.00 0.00 91 1018.9
20260831045032 17 0 0.0 0.0 0.00 0.00 0.00 90 1019.0
20260831044559 17 0 0.0 0.0 0.00 0.00 0.00 90 1018.8
20260831044030 17 0 0.0 0.0 0.00 0.00 0.00 90 1019.0
20260831043527 18 0 0.0 1.6 0.00 0.00 0.00 89 1018.9
20260831043054 18 0 0.0 1.6 0.00 0.00 0.00 89 1018.7
20260831042530 18 0 0.0 1.6 0.00 0.00 0.00 88 1018.7
20260831042031 18 0 0.0 3.2 0.00 0.00 0.00 88 1018.5
20260831041546 18 0 0.0 3.2 0.00 0.00 0.00 87 1018.7
20260831041030 18 0 0.0 1.6 0.00 0.00 0.00 86 1018.6
20260831040530 19 0 0.0 1.6 0.00 0.00 0.00 86 1018.6
20260831040045 19 0 0.0 1.6 0.00 0.00 0.00 85 1018.6
20260831035530 19 0 0.0 1.6 0.00 0.00 0.00 85 1018.6
20260831035029 19 0 0.0 6.4 0.00 0.00 0.00 84 1018.6
20260831034549 20 0 0.0 6.4 0.00 0.00 0.00 84 1018.6
20260831034029 20 0 1.6 6.4 0.00 0.00 0.00 84 1018.7
20260831033529 20 207 0.0 1.6 0.00 0.00 0.00 84 1018.6
20260831033104 20 0 0.0 1.6 0.00 0.00 0.00 82 1018.8
20260831032530 20 0 0.0 6.4 0.00 0.00 0.00 82 1018.7
20260831032029 20 0 0.0 6.4 0.00 0.00 0.00 81 1018.7
20260831031546 21 260 0.0 6.4 0.00 0.00 0.00 80 1018.7
20260831031031 21 63 1.6 4.8 0.00 0.00 0.00 79 1018.5
20260831030530 21 276 0.0 11.3 0.00 0.00 0.00 79 1018.7
20260831030046 21 204 1.6 11.3 0.00 0.00 0.00 80 1018.5
20260831025532 21 282 0.0 3.2 0.00 0.00 0.00 80 1018.6
20260831025030 21 0 0.0 6.4 0.00 0.00 0.00 80 1018.5
20260831024554 21 146 0.0 9.7 0.00 0.00 0.00 81 1018.6
20260831024033 21 34 3.2 9.7 0.00 0.00 0.00 79 1018.7
20260831023529 21 303 3.2 8.0 0.00 0.00 0.00 79 1018.5
20260831023050 21 333 1.6 8.0 0.00 0.00 0.00 79 1018.7
20260831022528 21 298 1.6 8.0 0.00 0.00 0.00 80 1018.6
20260831022031 21 350 1.6 12.9 0.00 0.00 0.00 79 1018.5
20260831021555 21 32 3.2 12.9 0.00 0.00 0.00 79 1018.3
20260831021034 21 264 1.6 11.3 0.00 0.00 0.00 79 1018.7
20260831020531 22 304 4.8 12.9 0.00 0.00 0.00 78 1018.6
20260831020109 22 274 4.8 19.3 0.00 0.00 0.00 78 1018.6
20260831015531 22 274 4.8 19.3 0.00 0.00 0.00 78 1018.7
20260831015030 22 292 4.8 19.3 0.00 0.00 0.00 78 1018.4
20260831014553 22 310 3.2 19.3 0.00 0.00 0.00 79 1018.4
20260831014030 22 325 4.8 16.1 0.00 0.00 0.00 79 1018.4
20260831013529 22 341 3.2 14.5 0.00 0.00 0.00 79 1018.2
20260831013048 22 27 3.2 9.7 0.00 0.00 0.00 79 1018.1
20260831012530 22 345 3.2 8.0 0.00 0.00 0.00 80 1018.1
20260831012028 22 43 3.2 8.0 0.00 0.00 0.00 80 1018.2
20260831011548 22 1 3.2 8.0 0.00 0.00 0.00 81 1018.2
20260831011029 21 0 0.0 3.2 0.00 0.00 0.00 83 1018.2
20260831010529 21 0 0.0 3.2 0.00 0.00 0.00 83 1018.1
20260831010056 21 0 0.0 3.2 0.00 0.00 0.00 84 1018.2
20260831005528 21 202 0.0 3.2 0.00 0.00 0.00 85 1018.0
20260831005030 21 0 0.0 4.8 0.00 0.00 0.00 87 1018.0
20260831004557 21 0 0.0 4.8 0.00 0.00 0.00 88 1018.0
20260831004032 21 0 0.0 3.2 0.00 0.00 0.00 89 1018.0
20260831003530 21 0 0.0 0.0 0.00 0.00 0.00 89 1017.9
20260831003048 21 0 0.0 0.0 0.00 0.00 0.00 88 1017.7
20260831002529 21 0 0.0 0.0 0.00 0.00 0.00 88 1017.7
20260831002027 21 0 0.0 0.0 0.00 0.00 0.00 88 1017.6
20260831001546 21 0 0.0 0.0 0.00 0.00 0.00 88 1017.5
20260831001032 21 0 0.0 0.0 0.00 0.00 0.00 89 1017.7
20260831000531 21 0 0.0 0.0 0.00 0.00 0.00 89 1017.5
20260831000047 21 0 0.0 0.0 0.00 0.00 0.00 88 1017.4
20260830235527 21 0 0.0 0.0 0.00 0.00 0.00 87 1017.2
20260830235031 21 0 0.0 0.0 0.00 0.00 0.00 87 1017.2
20260830234551 21 0 0.0 0.0 0.00 0.00 0.00 87 1017.2
20260830234030 21 0 0.0 0.0 0.00 0.00 0.00 87 1017.3
20260830233530 21 0 0.0 0.0 0.00 0.00 0.00 87 1017.3
20260830233047 21 0 0.0 0.0 0.00 0.00 0.00 87 1017.3
20260830232530 21 0 0.0 0.0 0.00 0.00 0.00 86 1017.3
20260830232030 22 0 0.0 0.0 0.00 0.00 0.00 86 1017.3
20260830231546 22 0 0.0 0.0 0.00 0.00 0.00 86 1017.4
20260830231029 22 0 0.0 0.0 0.00 0.00 0.00 86 1017.3
20260830230532 22 0 0.0 0.0 0.00 0.00 0.00 85 1017.3
20260830230053 22 0 0.0 0.0 0.00 0.00 0.00 84 1017.2
20260830225530 22 0 0.0 0.0 0.00 0.00 0.00 83 1017.2
20260830225031 22 0 0.0 0.0 0.00 0.00 0.00 83 1017.5
20260830224549 22 0 0.0 0.0 0.00 0.00 0.00 82 1017.5
20260830224027 22 0 0.0 0.0 0.00 0.00 0.00 82 1017.4
20260830223530 23 0 0.0 0.0 0.00 0.00 0.00 81 1017.4
20260830223045 23 0 0.0 0.0 0.00 0.00 0.00 81 1017.3
20260830222530 23 0 0.0 0.0 0.00 0.00 0.00 81 1017.3
20260830222029 23 0 0.0 0.0 0.00 0.00 0.00 80 1017.3
20260830221553 23 0 0.0 0.0 0.00 0.00 0.00 80 1017.2
20260830221027 23 0 0.0 0.0 0.00 0.00 0.00 79 1017.3
20260830220531 23 0 0.0 0.0 0.00 0.00 0.00 79 1017.2
20260830220101 24 0 0.0 0.0 0.00 0.00 0.00 78 1017.2
20260830215530 24 0 0.0 1.6 0.00 0.00 0.00 78 1017.4
20260830215030 24 0 0.0 8.0 0.00 0.00 0.00 78 1017.4
20260830214548 25 95 0.0 8.0 0.00 0.00 0.00 77 1017.4
20260830214030 25 77 1.6 8.0 0.00 0.00 0.00 75 1017.4
20260830213530 25 0 0.0 1.6 0.00 0.00 0.00 76 1017.5
20260830213046 25 210 0.0 1.6 0.00 0.00 0.00 78 1017.5
20260830212530 25 0 0.0 1.6 0.00 0.00 0.00 76 1017.5
20260830212030 25 0 0.0 1.6 0.00 0.00 0.00 78 1017.4
20260830211542 25 0 0.0 1.6 0.00 0.00 0.00 78 1017.5
20260830211031 25 0 0.0 1.6 0.00 0.00 0.00 77 1017.6
20260830210530 25 0 0.0 3.2 0.00 0.00 0.00 77 1017.5
20260830210054 25 0 0.0 4.8 0.00 0.00 0.00 79 1017.7
20260830205531 25 0 0.0 4.8 0.00 0.00 0.00 77 1017.6
20260830205029 25 0 0.0 1.6 0.00 0.00 0.00 76 1017.7
20260830204553 25 0 0.0 1.6 0.00 0.00 0.00 77 1017.6
20260830204029 25 0 0.0 3.2 0.00 0.00 0.00 76 1017.7
20260830203531 25 0 0.0 3.2 0.00 0.00 0.00 75 1017.7
20260830203049 25 0 0.0 3.2 0.00 0.00 0.00 74 1017.7
20260830202530 25 355 0.0 1.6 0.00 0.00 0.00 75 1017.6
20260830202030 25 0 0.0 1.6 0.00 0.00 0.00 77 1017.7
20260830201546 24 0 0.0 1.6 0.00 0.00 0.00 76 1017.6
20260830201032 25 0 0.0 0.0 0.00 0.00 0.00 76 1017.7
20260830200530 25 0 0.0 1.6 0.00 0.00 0.00 74 1017.8
20260830200045 25 0 0.0 1.6 0.00 0.00 0.00 76 1017.8
20260830195529 25 0 0.0 1.6 0.00 0.00 0.00 74 1017.9
20260830195031 25 110 0.0 1.6 0.00 0.00 0.00 76 1017.9
20260830194553 24 110 0.0 3.2 0.00 0.00 0.00 74 1017.9
20260830194030 24 134 0.0 3.2 0.00 0.00 0.00 75 1018.0
20260830193530 24 0 0.0 1.6 0.00 0.00 0.00 75 1017.9
20260830193048 23 160 0.0 1.6 0.00 0.00 0.00 75 1018.0
20260830192529 23 0 0.0 1.6 0.00 0.00 0.00 75 1018.0
20260830192032 23 0 0.0 0.0 0.00 0.00 0.00 75 1018.1
20260830191555 23 0 0.0 0.0 0.00 0.00 0.00 75 1018.1
20260830191029 23 0 0.0 0.0 0.00 0.00 0.00 76 1018.2
20260830190527 23 0 0.0 0.0 0.00 0.00 0.00 76 1018.3
20260830190103 23 0 0.0 0.0 0.00 0.00 0.00 77 1018.3
20260830185527 23 0 0.0 0.0 0.00 0.00 0.00 74 1018.4
20260830185029 24 0 0.0 0.0 0.00 0.00 0.00 73 1018.5
20260830184549 24 0 0.0 1.6 0.00 0.00 0.00 71 1018.6
20260830184029 24 0 0.0 1.6 0.00 0.00 0.00 72 1018.6
20260830183529 24 0 0.0 1.6 0.00 0.00 0.00 70 1018.6
20260830183046 25 133 0.0 3.2 0.00 0.00 0.00 72 1018.7
20260830182531 25 0 0.0 3.2 0.00 0.00 0.00 71 1018.9
20260830182031 25 103 0.0 1.6 0.00 0.00 0.00 69 1018.9
20260830181555 26 103 0.0 1.6 0.00 0.00 0.00 63 1019.0
20260830181032 26 103 0.0 1.6 0.00 0.00 0.00 62 1019.0
20260830180532 26 0 0.0 1.6 0.00 0.00 0.00 64 1019.1
20260830175529 26 161 0.0 4.8 0.00 0.00 0.00 69 1019.1
20260830175030 26 292 0.0 3.2 0.00 0.00 0.00 65 1019.3
20260830174545 26 313 0.0 3.2 0.00 0.00 0.00 64 1019.0
20260830174028 26 299 0.0 1.6 0.00 0.00 0.00 70 1019.3
20260830173529 25 0 0.0 1.6 0.00 0.00 0.00 68 1019.2
20260830173115 25 88 0.0 1.6 0.00 0.00 0.00 70 1019.3
20260830172534 25 0 0.0 1.6 0.00 0.00 0.00 72 1019.3
20260830172029 25 0 0.0 1.6 0.00 0.00 0.00 68 1019.4
20260830171553 25 0 0.0 0.0 0.00 0.00 0.00 72 1019.5
20260830171032 25 0 0.0 0.0 0.00 0.00 0.00 69 1019.6
20260830170530 25 0 0.0 1.6 0.00 0.00 0.00 73 1019.6
20260830170056 25 0 0.0 1.6 0.00 0.00 0.00 75 1019.7
20260830165528 25 0 0.0 1.6 0.00 0.00 0.00 75 1019.7
20260830165028 25 0 0.0 3.2 0.00 0.00 0.00 76 1019.7
20260830164550 25 100 0.0 3.2 0.00 0.00 0.00 74 1019.7
20260830164029 25 63 0.0 3.2 0.00 0.00 0.00 73 1019.8
20260830163530 25 146 0.0 3.2 0.00 0.00 0.00 72 1019.9
20260830163042 25 108 0.0 3.2 0.00 0.00 0.00 72 1019.9
20260830162530 25 216 0.0 1.6 0.00 0.00 0.00 74 1019.8
20260830162028 24 0 0.0 1.6 0.00 0.00 0.00 75 1019.8
20260830161600 24 255 0.0 0.0 0.00 0.00 0.00 74 1019.7
20260830161027 24 0 0.0 1.6 0.00 0.00 0.00 74 1019.8
20260830160530 24 0 0.0 1.6 0.00 0.00 0.00 74 1019.8
20260830160103 24 0 0.0 1.6 0.00 0.00 0.00 74 1020.2
20260830155532 25 0 0.0 1.6 0.00 0.00 0.00 74 1020.1
20260830155030 25 0 0.0 3.2 0.00 0.00 0.00 71 1020.1
20260830154546 25 179 0.0 3.2 0.00 0.00 0.00 74 1020.3
20260830154030 24 65 0.0 1.6 0.00 0.00 0.00 75 1020.3
20260830153530 24 0 0.0 1.6 0.00 0.00 0.00 73 1020.3
20260830153046 24 89 0.0 1.6 0.00 0.00 0.00 75 1020.4
20260830152527 23 0 0.0 1.6 0.00 0.00 0.00 77 1020.6
20260830152033 23 0 0.0 0.0 0.00 0.00 0.00 76 1020.6
20260830151601 23 0 0.0 0.0 0.00 0.00 0.00 77 1020.6
20260830151027 23 0 0.0 1.6 0.00 0.00 0.00 77 1020.6
20260830150528 23 0 0.0 1.6 0.00 0.00 0.00 77 1020.8
20260830150053 22 0 0.0 1.6 0.00 0.00 0.00 77 1020.8
20260830145530 22 0 0.0 1.6 0.00 0.00 0.00 78 1020.9
20260830145027 22 0 0.0 0.0 0.00 0.00 0.00 80 1020.8
20260830144556 22 0 0.0 0.0 0.00 0.00 0.00 81 1020.8
20260830144030 22 0 0.0 0.0 0.00 0.00 0.00 80 1021.0
20260830143530 22 0 0.0 0.0 0.00 0.00 0.00 78 1021.0
20260830143046 21 0 0.0 1.6 0.00 0.00 0.00 79 1020.8
20260830142529 21 0 0.0 1.6 0.00 0.00 0.00 79 1020.8
20260830142028 21 0 0.0 0.0 0.00 0.00 0.00 80 1020.8
20260830141541 21 0 0.0 0.0 0.00 0.00 0.00 81 1020.8
20260830141027 21 0 0.0 0.0 0.00 0.00 0.00 83 1020.7
20260830140528 20 0 0.0 1.6 0.00 0.00 0.00 81 1020.9
20260830135528 20 250 0.0 3.2 0.00 0.00 0.00 81 1021.1
20260830135027 20 0 0.0 1.6 0.00 0.00 0.00 85 1021.3
20260830134554 19 0 0.0 1.6 0.00 0.00 0.00 86 1021.3
20260830134030 18 281 0.0 1.6 0.00 0.00 0.00 86 1021.3
20260830133529 18 0 0.0 0.0 0.00 0.00 0.00 86 1021.3
20260830133045 18 0 0.0 0.0 0.00 0.00 0.00 87 1021.5
20260830132529 18 0 0.0 0.0 0.00 0.00 0.00 87 1021.4
20260830132027 18 0 0.0 0.0 0.00 0.00 0.00 88 1021.5
20260830131555 18 0 0.0 1.6 0.00 0.00 0.00 88 1021.4
20260830131028 17 0 0.0 1.6 0.00 0.00 0.00 90 1021.5
20260830130532 17 0 0.0 1.6 0.00 0.00 0.00 90 1021.6
20260830130058 16 0 0.0 1.6 0.00 0.00 0.00 92 1021.6
20260830125531 16 0 0.0 1.6 0.00 0.00 0.00 93 1021.7
20260830125030 15 0 0.0 0.0 0.00 0.00 0.00 94 1021.8
20260830124550 15 0 0.0 0.0 0.00 0.00 0.00 94 1021.8
20260830124028 15 0 0.0 1.6 0.00 0.00 0.00 94 1022.0
20260830123531 15 0 0.0 1.6 0.00 0.00 0.00 95 1021.9
20260830123046 15 0 0.0 1.6 0.00 0.00 0.00 96 1022.0
20260830122530 14 0 0.0 1.6 0.00 0.00 0.00 97 1022.1
20260830122031 14 0 0.0 0.0 0.00 0.00 0.00 97 1022.0
20260830121552 14 0 0.0 0.0 0.00 0.00 0.00 97 1022.1
20260830121028 13 0 0.0 0.0 0.00 0.00 0.00 98 1022.0
20260830120527 13 0 0.0 0.0 0.00 0.00 0.00 98 1022.0
20260830120052 13 0 0.0 0.0 0.00 0.00 0.00 98 1021.9
20260830115529 13 0 0.0 0.0 0.00 0.00 0.00 98 1022.0
20260830115031 13 0 0.0 0.0 0.00 0.00 0.00 98 1021.9
20260830114556 13 0 0.0 0.0 0.00 0.00 0.00 98 1022.1
20260830114029 12 0 0.0 0.0 0.00 0.00 0.00 98 1022.0
20260830113529 12 0 0.0 0.0 0.00 0.00 0.00 98 1022.1
20260830113047 12 0 0.0 0.0 0.00 0.00 0.00 98 1022.0
20260830112529 12 0 0.0 0.0 0.00 0.00 0.00 97 1022.1
20260830112030 12 0 0.0 0.0 0.00 0.00 0.00 97 1022.0
20260830111556 12 0 0.0 0.0 0.00 0.00 0.00 97 1022.0
20260830111029 12 0 0.0 0.0 0.00 0.00 0.00 97 1022.1
20260830110528 12 0 0.0 0.0 0.00 0.00 0.00 97 1022.0
20260830110045 12 0 0.0 0.0 0.00 0.00 0.00 97 1022.0
20260830105529 12 0 0.0 0.0 0.00 0.00 0.00 97 1022.1
20260830105027 12 0 0.0 0.0 0.00 0.00 0.00 97 1022.0
20260830104550 12 0 0.0 0.0 0.00 0.00 0.00 97 1022.0
20260830104030 12 0 0.0 0.0 0.00 0.00 0.00 97 1022.0
20260830103530 12 0 0.0 0.0 0.00 0.00 0.00 97 1022.0
20260830103046 12 0 0.0 0.0 0.00 0.00 0.00 97 1022.0
20260830102532 12 0 0.0 0.0 0.00 0.00 0.00 97 1021.9
20260830102029 12 0 0.0 0.0 0.00 0.00 0.00 97 1022.1
20260830101557 12 0 0.0 0.0 0.00 0.00 0.00 97 1022.1
20260830101027 12 0 0.0 0.0 0.00 0.00 0.00 96 1022.1
20260830100529 12 0 0.0 0.0 0.00 0.00 0.00 97 1021.9
20260830100054 12 0 0.0 0.0 0.00 0.00 0.00 97 1022.0
20260830095535 12 0 0.0 0.0 0.00 0.00 0.00 97 1022.1
20260830095029 12 0 0.0 0.0 0.00 0.00 0.00 96 1022.1
20260830094546 12 0 0.0 0.0 0.00 0.00 0.00 96 1022.1
20260830094030 12 0 0.0 0.0 0.00 0.00 0.00 96 1022.3
20260830093529 12 0 0.0 0.0 0.00 0.00 0.00 96 1022.1
20260830093048 12 0 0.0 0.0 0.00 0.00 0.00 96 1022.2
20260830092529 12 0 0.0 0.0 0.00 0.00 0.00 96 1022.1
20260830092029 12 0 0.0 0.0 0.00 0.00 0.00 96 1022.1
20260830091545 12 0 0.0 0.0 0.00 0.00 0.00 96 1022.1
20260830091027 12 0 0.0 0.0 0.00 0.00 0.00 96 1022.1
20260830090530 12 0 0.0 0.0 0.00 0.00 0.00 97 1022.3
20260830090051 12 0 0.0 0.0 0.00 0.00 0.00 97 1022.3
20260830085529 12 0 0.0 0.0 0.00 0.00 0.00 97 1022.3
20260830085029 12 0 0.0 0.0 0.00 0.00 0.00 97 1022.3
20260830084555 12 0 0.0 0.0 0.00 0.00 0.00 97 1022.3
20260830084029 12 0 0.0 0.0 0.00 0.00 0.00 97 1022.3
20260830083530 12 0 0.0 0.0 0.00 0.00 0.00 97 1022.3
20260830083053 12 0 0.0 0.0 0.00 0.00 0.00 97 1022.3
20260830082529 12 0 0.0 0.0 0.00 0.00 0.00 97 1022.3
20260830082029 12 0 0.0 0.0 0.00 0.00 0.00 97 1022.2
20260830081546 12 0 0.0 0.0 0.00 0.00 0.00 97 1022.3
20260830081029 12 0 0.0 0.0 0.00 0.00 0.00 97 1022.2
20260830080530 12 0 0.0 0.0 0.00 0.00 0.00 97 1022.3
20260830080048 12 0 0.0 0.0 0.00 0.00 0.00 97 1022.3
20260830075531 12 0 0.0 0.0 0.00 0.00 0.00 97 1022.2
20260830075029 12 0 0.0 0.0 0.00 0.00 0.00 97 1022.3
20260830074552 12 0 0.0 0.0 0.00 0.00 0.00 97 1022.2
20260830074031 12 0 0.0 0.0 0.00 0.00 0.00 97 1022.2
20260830073530 12 0 0.0 0.0 0.00 0.00 0.00 97 1022.4
20260830073049 12 0 0.0 0.0 0.00 0.00 0.00 97 1022.4
20260830072532 12 0 0.0 0.0 0.00 0.00 0.00 97 1022.5
20260830072030 12 0 0.0 0.0 0.00 0.00 0.00 97 1022.5
20260830071542 12 0 0.0 0.0 0.00 0.00 0.00 97 1022.5
20260830071030 12 0 0.0 0.0 0.00 0.00 0.00 97 1022.5
20260830070530 12 0 0.0 0.0 0.00 0.00 0.00 96 1022.5
20260830070053 12 0 0.0 0.0 0.00 0.00 0.00 97 1022.5
20260830065530 12 0 0.0 0.0 0.00 0.00 0.00 97 1022.4
20260830065030 12 0 0.0 0.0 0.00 0.00 0.00 96 1022.4
20260830064554 12 0 0.0 0.0 0.00 0.00 0.00 96 1022.4
20260830064030 12 0 0.0 0.0 0.00 0.00 0.00 96 1022.3
20260830063530 12 0 0.0 0.0 0.00 0.00 0.00 96 1022.3
20260830063054 12 0 0.0 0.0 0.00 0.00 0.00 96 1022.3
20260830062531 12 0 0.0 0.0 0.00 0.00 0.00 96 1022.1
20260830062030 12 0 0.0 0.0 0.00 0.00 0.00 96 1022.0
20260830061552 12 0 0.0 0.0 0.00 0.00 0.00 96 1022.1
20260830061030 12 0 0.0 0.0 0.00 0.00 0.00 96 1022.0
20260830060531 12 0 0.0 0.0 0.00 0.00 0.00 96 1022.0